N1OF Weather Reports


time (UTC)temp
C
wind
direction
speed
KPH
gust
KPH
rain 1hr
cm
rain 24hr
cm
rain mn
cm
humidity
%
barometer
mb
20260903025616 28 290 3.2 4.8 0.00 0.00 0.00 78 1015.4
20260903025113 28 302 6.4 9.7 0.00 0.00 0.00 78 1015.4
20260903024613 28 251 6.4 11.3 0.00 0.00 0.00 78 1015.3
20260903024106 28 204 4.8 6.4 0.00 0.00 0.00 78 1015.3
20260903023602 28 222 3.2 6.4 0.00 0.00 0.00 78 1015.4
20260903023058 28 217 6.4 11.3 0.00 0.00 0.00 77 1015.3
20260903022557 28 248 3.2 9.7 0.00 0.00 0.00 77 1015.4
20260903022056 28 164 3.2 9.7 0.00 0.00 0.00 77 1015.2
20260903021550 28 180 3.2 11.3 0.00 0.00 0.00 77 1015.4
20260903021045 28 234 1.6 3.2 0.00 0.00 0.00 77 1015.4
20260903020541 28 214 1.6 9.7 0.00 0.00 0.00 76 1015.4
20260903020040 28 208 1.6 9.7 0.00 0.00 0.00 76 1015.6
20260903015536 28 164 3.2 4.8 0.00 0.00 0.00 76 1015.5
20260903015031 28 220 3.2 6.4 0.00 0.00 0.00 75 1015.3
20260903014531 28 223 3.2 6.4 0.00 0.00 0.00 75 1015.4
20260903014026 28 217 3.2 6.4 0.00 0.00 0.00 75 1015.4
20260903013525 29 159 1.6 6.4 0.00 0.00 0.00 75 1015.2
20260903013020 29 197 3.2 9.7 0.00 0.00 0.00 75 1015.4
20260903012519 29 170 0.0 3.2 0.00 0.00 0.00 75 1015.2
20260903012018 29 232 0.0 6.4 0.00 0.00 0.00 75 1015.5
20260903011513 29 278 1.6 3.2 0.00 0.00 0.00 75 1015.3
20260903011008 29 297 0.0 3.2 0.00 0.00 0.00 75 1015.4
20260903010504 29 207 0.0 3.2 0.00 0.00 0.00 74 1015.2
20260903010002 29 184 1.6 4.8 0.00 0.00 0.00 74 1014.9
20260903005457 29 231 0.0 1.6 0.00 0.00 0.00 73 1014.8
20260903004953 29 205 0.0 1.6 0.00 0.00 0.00 73 1015.2
20260903004447 30 248 0.0 1.6 0.00 0.00 0.00 72 1014.9
20260903003943 30 120 0.0 1.6 0.00 0.00 0.00 72 1014.9
20260903003442 30 66 1.6 1.6 0.00 0.00 0.00 71 1014.9
20260903002937 30 233 0.0 1.6 0.00 0.00 0.00 70 1014.7
20260903002432 30 186 1.6 3.2 0.00 0.00 0.00 70 1015.1
20260903001932 30 233 0.0 1.6 0.00 0.00 0.00 69 1014.8
20260903001432 30 172 0.0 1.6 0.00 0.00 0.00 68 1014.8
20260903000932 31 207 3.2 4.8 0.00 0.00 0.00 68 1014.8
20260903000427 31 246 3.2 3.2 0.00 0.00 0.00 67 1014.9
20260902235925 31 270 0.0 1.6 0.00 0.00 0.00 66 1014.8
20260902235420 31 248 1.6 4.8 0.00 0.00 0.00 66 1014.8
20260902234914 31 159 0.0 3.2 0.00 0.00 0.00 65 1014.7
20260902234410 32 210 3.2 3.2 0.00 0.00 0.00 63 1014.7
20260902233909 32 252 4.8 6.4 0.00 0.00 0.00 62 1015.1
20260902233403 32 181 0.0 6.4 0.00 0.00 0.00 62 1014.8
20260902232902 32 138 4.8 9.7 0.00 0.00 0.00 62 1014.7
20260902232357 32 195 1.6 4.8 0.00 0.00 0.00 62 1014.7
20260902231856 32 260 4.8 9.7 0.00 0.00 0.00 61 1014.7
20260902231351 32 254 3.2 9.7 0.00 0.00 0.00 60 1014.7
20260902230846 32 270 4.8 11.3 0.00 0.00 0.00 59 1014.9
20260902230346 33 150 8.0 9.7 0.00 0.00 0.00 58 1014.8
20260902225839 33 244 8.0 11.3 0.00 0.00 0.00 58 1015.1
20260902225335 33 234 4.8 9.7 0.00 0.00 0.00 57 1014.9
20260902224833 33 141 1.6 4.8 0.00 0.00 0.00 57 1014.8
20260902224328 33 267 3.2 12.9 0.00 0.00 0.00 57 1014.7
20260902223825 33 224 6.4 12.9 0.00 0.00 0.00 57 1014.8
20260902223319 33 275 4.8 11.3 0.00 0.00 0.00 57 1014.8
20260902222813 33 247 11.3 22.5 0.00 0.00 0.00 56 1014.9
20260902222306 33 250 4.8 9.7 0.00 0.00 0.00 56 1014.8
20260902221800 33 229 6.4 12.9 0.00 0.00 0.00 55 1015.1
20260902221300 33 298 6.4 14.5 0.00 0.00 0.00 55 1014.9
20260902220755 33 203 3.2 12.9 0.00 0.00 0.00 54 1015.3
20260902220255 33 224 6.4 6.4 0.00 0.00 0.00 54 1014.8
20260902215750 33 302 3.2 6.4 0.00 0.00 0.00 53 1015.2
20260902215246 34 141 6.4 11.3 0.00 0.00 0.00 53 1014.9
20260902214742 34 289 8.0 14.5 0.00 0.00 0.00 52 1015.1
20260902214240 34 239 4.8 6.4 0.00 0.00 0.00 51 1014.9
20260902213736 35 113 6.4 11.3 0.00 0.00 0.00 51 1014.9
20260902213236 34 194 3.2 9.7 0.00 0.00 0.00 50 1015.1
20260902212735 34 234 3.2 6.4 0.00 0.00 0.00 50 1015.1
20260902212232 34 280 6.4 11.3 0.00 0.00 0.00 49 1015.2
20260902211729 34 283 8.0 14.5 0.00 0.00 0.00 48 1015.2
20260902211224 34 252 4.8 16.1 0.00 0.00 0.00 48 1014.9
20260902210724 34 239 6.4 20.9 0.00 0.00 0.00 48 1015.2
20260902210219 35 169 3.2 6.4 0.00 0.00 0.00 50 1015.3
20260902205717 34 208 8.0 11.3 0.00 0.00 0.00 51 1015.1
20260902205212 34 174 8.0 22.5 0.00 0.00 0.00 52 1015.3
20260902204702 34 237 6.4 14.5 0.00 0.00 0.00 53 1015.3
20260902204156 34 268 9.7 14.5 0.00 0.00 0.00 52 1015.3
20260902203652 34 234 1.6 11.3 0.00 0.00 0.00 52 1015.4
20260902203151 34 118 3.2 11.3 0.00 0.00 0.00 53 1015.6
20260902202641 34 234 6.4 9.7 0.00 0.00 0.00 52 1015.6
20260902202138 34 189 9.7 12.9 0.00 0.00 0.00 51 1015.7
20260902201634 34 207 3.2 9.7 0.00 0.00 0.00 52 1015.7
20260902201132 35 131 3.2 14.5 0.00 0.00 0.00 53 1015.8
20260902200627 34 190 6.4 12.9 0.00 0.00 0.00 52 1015.7
20260902200124 34 251 9.7 20.9 0.00 0.00 0.00 52 1015.7
20260902195619 34 233 4.8 12.9 0.00 0.00 0.00 53 1015.9
20260902195118 34 203 8.0 14.5 0.00 0.00 0.00 54 1015.9
20260902194617 35 228 6.4 16.1 0.00 0.00 0.00 51 1015.8
20260902194108 35 257 4.8 12.9 0.00 0.00 0.00 51 1015.8
20260902193603 35 135 4.8 12.9 0.00 0.00 0.00 54 1015.9
20260902193102 34 271 3.2 16.1 0.00 0.00 0.00 52 1016.1
20260902192601 35 296 4.8 9.7 0.00 0.00 0.00 51 1016.1
20260902192100 35 164 9.7 16.1 0.00 0.00 0.00 49 1016.0
20260902191555 35 310 6.4 11.3 0.00 0.00 0.00 51 1016.2
20260902191050 34 227 6.4 11.3 0.00 0.00 0.00 53 1016.3
20260902190546 35 220 11.3 14.5 0.00 0.00 0.00 52 1016.3
20260902190041 34 218 9.7 17.7 0.00 0.00 0.00 53 1016.3
20260902185537 35 328 6.4 12.9 0.00 0.00 0.00 52 1016.4
20260902185032 34 289 6.4 9.7 0.00 0.00 0.00 52 1016.5
20260902184527 35 230 9.7 11.3 0.00 0.00 0.00 52 1016.7
20260902184022 35 218 4.8 17.7 0.00 0.00 0.00 54 1016.6
20260902183519 35 273 4.8 9.7 0.00 0.00 0.00 54 1016.8
20260902183015 34 241 3.2 6.4 0.00 0.00 0.00 55 1016.6
20260902182511 34 285 4.8 12.9 0.00 0.00 0.00 55 1016.8
20260902182006 34 109 6.4 9.7 0.00 0.00 0.00 54 1016.9
20260902181503 34 125 3.2 6.4 0.00 0.00 0.00 55 1016.8
20260902180956 33 277 4.8 14.5 0.00 0.00 0.00 56 1017.0
20260902180456 33 311 3.2 6.4 0.00 0.00 0.00 57 1016.9
20260902175953 33 285 8.0 12.9 0.00 0.00 0.00 56 1016.9
20260902175452 33 236 1.6 9.7 0.00 0.00 0.00 57 1016.9
20260902174948 33 273 3.2 17.7 0.00 0.00 0.00 55 1017.0
20260902174445 33 257 3.2 4.8 0.00 0.00 0.00 57 1017.0
20260902173940 33 225 4.8 11.3 0.00 0.00 0.00 57 1016.9
20260902173439 33 255 3.2 6.4 0.00 0.00 0.00 57 1016.9
20260902172935 33 313 1.6 4.8 0.00 0.00 0.00 57 1017.1
20260902172434 33 4 3.2 6.4 0.00 0.00 0.00 59 1017.3
20260902171929 33 206 4.8 14.5 0.00 0.00 0.00 58 1017.3
20260902171425 32 193 3.2 9.7 0.00 0.00 0.00 58 1017.2
20260902170920 33 279 8.0 11.3 0.00 0.00 0.00 58 1017.4
20260902170416 32 285 3.2 9.7 0.00 0.00 0.00 61 1017.3
20260902165911 32 173 4.8 12.9 0.00 0.00 0.00 59 1017.3
20260902165410 32 266 6.4 12.9 0.00 0.00 0.00 60 1017.4
20260902164905 32 273 1.6 6.4 0.00 0.00 0.00 61 1017.5
20260902164400 33 263 3.2 6.4 0.00 0.00 0.00 60 1017.7
20260902163859 32 300 3.2 4.8 0.00 0.00 0.00 62 1017.9
20260902163354 32 33 6.4 9.7 0.00 0.00 0.00 61 1017.9
20260902162853 32 201 3.2 9.7 0.00 0.00 0.00 63 1017.9
20260902162348 31 213 8.0 12.9 0.00 0.00 0.00 62 1017.8
20260902161848 32 282 4.8 9.7 0.00 0.00 0.00 61 1017.9
20260902161343 32 304 3.2 6.4 0.00 0.00 0.00 61 1017.9
20260902160840 32 217 3.2 6.4 0.00 0.00 0.00 62 1017.8
20260902160335 31 312 4.8 11.3 0.00 0.00 0.00 62 1017.8
20260902155832 31 285 8.0 11.3 0.00 0.00 0.00 63 1017.9
20260902155332 31 279 8.0 11.3 0.00 0.00 0.00 62 1017.8
20260902154827 31 251 3.2 4.8 0.00 0.00 0.00 65 1017.6
20260902154323 31 292 4.8 11.3 0.00 0.00 0.00 64 1017.6
20260902153821 31 254 6.4 9.7 0.00 0.00 0.00 63 1017.8
20260902153321 31 329 8.0 9.7 0.00 0.00 0.00 62 1017.8
20260902152817 31 220 1.6 3.2 0.00 0.00 0.00 64 1017.6
20260902152313 31 288 1.6 4.8 0.00 0.00 0.00 65 1017.6
20260902151808 31 287 8.0 11.3 0.00 0.00 0.00 63 1017.8
20260902151303 31 215 1.6 4.8 0.00 0.00 0.00 64 1017.6
20260902150758 31 282 3.2 4.8 0.00 0.00 0.00 66 1017.6
20260902150254 30 295 9.7 11.3 0.00 0.00 0.00 66 1017.5
20260902145753 30 216 4.8 9.7 0.00 0.00 0.00 65 1017.5
20260902145248 30 230 3.2 11.3 0.00 0.00 0.00 67 1017.6
20260902144743 30 297 9.7 12.9 0.00 0.00 0.00 67 1017.4
20260902144239 30 268 6.4 11.3 0.00 0.00 0.00 68 1017.5
20260902143734 30 235 1.6 6.4 0.00 0.00 0.00 68 1017.6
20260902143230 30 286 3.2 9.7 0.00 0.00 0.00 69 1017.4
20260902142725 29 189 4.8 6.4 0.00 0.00 0.00 70 1017.7
20260902142221 29 207 3.2 6.4 0.00 0.00 0.00 70 1017.5
20260902141715 30 278 1.6 4.8 0.00 0.00 0.00 69 1017.5
20260902141211 30 304 6.4 6.4 0.00 0.00 0.00 69 1017.3
20260902140707 29 287 3.2 9.7 0.00 0.00 0.00 71 1017.3
20260902140206 28 283 4.8 9.7 0.00 0.00 0.00 71 1017.3
20260902135705 28 294 3.2 11.3 0.00 0.00 0.00 72 1017.4
20260902135201 28 204 3.2 9.7 0.00 0.00 0.00 73 1017.1
20260902134656 28 275 4.8 9.7 0.00 0.00 0.00 73 1017.3
20260902134155 28 294 8.0 12.9 0.00 0.00 0.00 72 1017.4
20260902133651 28 287 4.8 9.7 0.00 0.00 0.00 73 1017.2
20260902133151 28 180 4.8 11.3 0.00 0.00 0.00 73 1017.2
20260902132646 28 233 1.6 3.2 0.00 0.00 0.00 74 1017.2
20260902132141 27 236 0.0 9.7 0.00 0.00 0.00 75 1017.4
20260902131637 27 292 0.0 4.8 0.00 0.00 0.00 76 1017.4
20260902131132 27 310 3.2 3.2 0.00 0.00 0.00 76 1017.2
20260902130628 27 246 1.6 3.2 0.00 0.00 0.00 77 1017.2
20260902130123 27 297 4.8 9.7 0.00 0.00 0.00 78 1017.1
20260902125619 27 276 1.6 4.8 0.00 0.00 0.00 77 1017.1
20260902125114 27 167 3.2 4.8 0.00 0.00 0.00 78 1017.4
20260902124611 26 222 1.6 3.2 0.00 0.00 0.00 78 1017.4
20260902124111 26 204 0.0 4.8 0.00 0.00 0.00 79 1017.4
20260902123607 26 205 3.2 4.8 0.00 0.00 0.00 79 1017.4
20260902123102 26 273 0.0 4.8 0.00 0.00 0.00 80 1017.5
20260902122601 26 209 1.6 6.4 0.00 0.00 0.00 81 1017.4
20260902122057 26 284 1.6 3.2 0.00 0.00 0.00 81 1017.4
20260902121557 26 224 3.2 6.4 0.00 0.00 0.00 82 1017.4
20260902121052 25 226 1.6 1.6 0.00 0.00 0.00 83 1017.4
20260902120548 25 287 0.0 1.6 0.00 0.00 0.00 84 1017.5
20260902120044 25 282 0.0 3.2 0.00 0.00 0.00 84 1017.3
20260902115539 25 294 3.2 3.2 0.00 0.00 0.00 85 1017.3
20260902115035 25 269 1.6 3.2 0.00 0.00 0.00 85 1017.4
20260902114531 25 236 3.2 3.2 0.00 0.00 0.00 86 1017.4
20260902114030 25 271 3.2 4.8 0.00 0.00 0.00 86 1017.3
20260902113526 24 262 1.6 1.6 0.00 0.00 0.00 87 1017.3
20260902113021 24 271 1.6 4.8 0.00 0.00 0.00 87 1017.3
20260902112516 24 218 1.6 3.2 0.00 0.00 0.00 87 1017.2
20260902112013 24 281 0.0 3.2 0.00 0.00 0.00 88 1017.1
20260902111509 24 251 0.0 1.6 0.00 0.00 0.00 88 1017.0
20260902111004 24 282 0.0 1.6 0.00 0.00 0.00 88 1016.9
20260902110500 24 214 1.6 3.2 0.00 0.00 0.00 89 1016.8
20260902105955 24 264 0.0 0.0 0.00 0.00 0.00 89 1017.1
20260902105450 24 264 0.0 0.0 0.00 0.00 0.00 89 1016.8
20260902104944 24 264 0.0 0.0 0.00 0.00 0.00 89 1017.0
20260902104440 24 264 0.0 0.0 0.00 0.00 0.00 89 1016.9
20260902103934 24 264 0.0 1.6 0.00 0.00 0.00 90 1016.9
20260902103429 24 264 0.0 1.6 0.00 0.00 0.00 90 1016.8
20260902102924 23 222 0.0 1.6 0.00 0.00 0.00 91 1016.9
20260902102422 23 242 0.0 0.0 0.00 0.00 0.00 92 1016.7
20260902101918 23 242 0.0 0.0 0.00 0.00 0.00 92 1016.9
20260902101413 23 242 0.0 0.0 0.00 0.00 0.00 92 1016.6
20260902100912 23 242 0.0 0.0 0.00 0.00 0.00 92 1016.7
20260902100411 23 242 0.0 0.0 0.00 0.00 0.00 92 1016.8
20260902095907 23 242 0.0 0.0 0.00 0.00 0.00 92 1016.8
20260902095406 23 242 0.0 0.0 0.00 0.00 0.00 91 1016.8
20260902094900 23 242 0.0 0.0 0.00 0.00 0.00 91 1016.8
20260902094357 23 242 0.0 0.0 0.00 0.00 0.00 91 1016.7
20260902093855 24 242 0.0 1.6 0.00 0.00 0.00 91 1016.7
20260902093346 24 239 0.0 0.0 0.00 0.00 0.00 91 1016.8
20260902092844 24 239 0.0 0.0 0.00 0.00 0.00 91 1016.7
20260902092340 24 239 0.0 0.0 0.00 0.00 0.00 90 1016.6
20260902091840 24 239 0.0 0.0 0.00 0.00 0.00 90 1016.9
20260902091336 24 239 0.0 0.0 0.00 0.00 0.00 90 1016.7
20260902090833 24 239 0.0 0.0 0.00 0.00 0.00 89 1016.6
20260902090332 25 239 0.0 0.0 0.00 0.00 0.00 89 1016.7
20260902085831 25 239 0.0 0.0 0.00 0.00 0.00 88 1016.8
20260902085326 25 232 0.0 0.0 0.00 0.00 0.00 88 1017.0
20260902084822 25 260 0.0 0.0 0.00 0.00 0.00 88 1016.8
20260902084318 25 267 0.0 1.6 0.00 0.00 0.00 88 1016.5
20260902083808 25 176 0.0 0.0 0.00 0.00 0.00 88 1016.7
20260902083307 25 223 0.0 1.6 0.00 0.00 0.00 88 1016.5
20260902082802 25 221 1.6 3.2 0.00 0.00 0.00 88 1016.6
20260902082259 25 178 3.2 4.8 0.00 0.00 0.00 88 1016.6
20260902081754 25 254 0.0 1.6 0.00 0.00 0.00 89 1016.5
20260902081250 24 277 0.0 3.2 0.00 0.00 0.00 90 1016.5
20260902080745 24 211 1.6 3.2 0.00 0.00 0.00 91 1016.5
20260902080242 24 188 0.0 0.0 0.00 0.00 0.00 91 1016.3
20260902075741 24 188 0.0 0.0 0.00 0.00 0.00 90 1016.3
20260902075238 24 188 0.0 0.0 0.00 0.00 0.00 90 1016.4
20260902074737 25 188 0.0 0.0 0.00 0.00 0.00 89 1016.4
20260902074233 25 188 0.0 0.0 0.00 0.00 0.00 89 1016.6
20260902073728 25 194 0.0 0.0 0.00 0.00 0.00 89 1016.3
20260902073224 25 194 0.0 0.0 0.00 0.00 0.00 88 1016.4
20260902072720 25 194 1.6 3.2 0.00 0.00 0.00 88 1016.3
20260902072216 25 266 0.0 0.0 0.00 0.00 0.00 89 1016.4
20260902071712 25 247 0.0 3.2 0.00 0.00 0.00 90 1016.3
20260902071207 25 263 0.0 1.6 0.00 0.00 0.00 90 1016.3
20260902070703 25 207 0.0 0.0 0.00 0.00 0.00 91 1016.1
20260902070202 25 207 0.0 0.0 0.00 0.00 0.00 91 1016.4
20260902065701 25 207 0.0 0.0 0.00 0.00 0.00 91 1016.3
20260902065157 25 207 0.0 0.0 0.00 0.00 0.00 90 1016.3
20260902064652 25 207 0.0 0.0 0.00 0.00 0.00 90 1016.5
20260902064148 25 207 0.0 0.0 0.00 0.00 0.00 90 1016.4
20260902063644 25 207 0.0 0.0 0.00 0.00 0.00 90 1016.4
20260902063144 25 207 0.0 0.0 0.00 0.00 0.00 89 1016.5
20260902062643 25 207 0.0 1.6 0.00 0.00 0.00 89 1016.5
20260902062138 25 206 0.0 0.0 0.00 0.00 0.00 89 1016.5
20260902061637 25 238 0.0 0.0 0.00 0.00 0.00 88 1016.6
20260902061133 25 238 0.0 0.0 0.00 0.00 0.00 88 1016.6
20260902060630 25 238 0.0 0.0 0.00 0.00 0.00 87 1016.6
20260902060126 26 238 0.0 0.0 0.00 0.00 0.00 86 1016.6
20260902055621 26 243 0.0 0.0 0.00 0.00 0.00 86 1016.7
20260902055116 26 243 0.0 0.0 0.00 0.00 0.00 85 1016.7
20260902054612 26 254 0.0 1.6 0.00 0.00 0.00 85 1016.8
20260902054108 26 283 0.0 3.2 0.00 0.00 0.00 84 1016.6
20260902053603 26 215 1.6 3.2 0.00 0.00 0.00 84 1016.6
20260902053102 26 254 0.0 4.8 0.00 0.00 0.00 84 1016.7
20260902052557 26 276 0.0 1.6 0.00 0.00 0.00 84 1016.5
20260902052053 26 341 0.0 0.0 0.00 0.00 0.00 84 1016.7
20260902051552 26 283 0.0 0.0 0.00 0.00 0.00 83 1016.7
20260902051051 26 296 1.6 1.6 0.00 0.00 0.00 83 1016.3
20260902050546 26 299 0.0 3.2 0.00 0.00 0.00 83 1016.5
20260902050041 26 276 0.0 3.2 0.00 0.00 0.00 83 1016.5
20260902045537 27 328 0.0 3.2 0.00 0.00 0.00 82 1016.4
20260902045033 27 274 4.8 6.4 0.00 0.00 0.00 82 1016.6
20260902044533 27 286 0.0 6.4 0.00 0.00 0.00 82 1016.3
20260902044029 27 201 3.2 6.4 0.00 0.00 0.00 82 1016.1
20260902043524 27 324 1.6 4.8 0.00 0.00 0.00 82 1016.2
20260902043024 27 244 1.6 6.4 0.00 0.00 0.00 81 1016.0
20260902042524 27 222 3.2 4.8 0.00 0.00 0.00 81 1016.0
20260902042020 27 283 1.6 4.8 0.00 0.00 0.00 81 1016.0
20260902041519 27 295 1.6 3.2 0.00 0.00 0.00 81 1015.8
20260902041014 27 288 3.2 11.3 0.00 0.00 0.00 81 1015.9
20260902040514 27 274 0.0 3.2 0.00 0.00 0.00 82 1015.7
20260902040014 27 260 3.2 6.4 0.00 0.71 0.71 82 1016.0
20260902035509 27 239 1.6 4.8 0.00 0.71 0.71 81 1015.7
20260902035009 27 189 1.6 9.7 0.00 0.71 0.71 81 1015.8
20260902034502 27 208 3.2 4.8 0.00 0.71 0.71 81 1015.9
20260902033956 27 189 3.2 6.4 0.00 0.71 0.71 81 1016.0
20260902033455 27 157 4.8 4.8 0.00 0.71 0.71 81 1016.1
20260902032954 27 235 1.6 6.4 0.00 0.71 0.71 81 1016.0
20260902032449 27 178 4.8 9.7 0.00 0.71 0.71 81 1015.9
20260902031944 27 234 1.6 3.2 0.00 0.71 0.71 81 1016.1
20260902031440 27 284 4.8 6.4 0.00 0.71 0.71 80 1016.3
20260902030937 27 280 3.2 11.3 0.00 0.71 0.71 80 1016.3
20260902030436 27 184 0.0 3.2 0.00 0.71 0.71 80 1016.3
20260902025935 27 249 1.6 3.2 0.00 0.71 0.71 81 1016.4